                ,  0.730,  0.880,  1.030,  1.180,  1.330,  1.480,  1.630,  1.780,  1.930,  2.080,  2.230,  2.380,  2.530,  2.680,  2.830,  2.980,  3.130,  3.280,  3.430,  3.580,  3.730,  3.880,  4.030,  4.180,  4.330,  4.480,  4.630,  4.780,  4.930,  5.080,  5.230,  5.380
1999/07/27 00:00,   46.5,   49.7,   49.9,   51.8,   52.5,   47.4,   50.2,   49.1,   48.3,   47.9,   45.4,   48.5,   46.2,   47.2,   50.0,   49.4,   45.7,   41.2,   37.1,   36.6,   38.9,   42.1,   41.4,   41.4,   29.0,   26.8,   26.1,   35.2,   31.3,   25.8,   26.6,   26.4
1999/07/27 00:10,   42.8,   40.5,   43.9,   47.0,   47.3,   51.4,   52.1,   51.9,   49.1,   48.6,   47.9,   47.2,   49.9,   48.6,   45.5,   43.7,   45.4,   45.0,   42.7,   44.7,   44.4,   41.2,   38.5,   32.6,   29.6,   29.7,   29.9,   32.8,   32.0,   27.0,   24.5,   27.4
1999/07/27 00:20,   39.3,   58.1,   50.7,   52.8,   51.2,   57.3,   52.5,   50.0,   50.5,  999.0,   48.0,   50.8,   42.0,  999.0,   29.8,   32.1,   48.1,   43.5,   54.0,   49.0,   45.2,   43.4,   45.5,   44.6,   35.2,   29.4,   29.3,   29.6,   31.0,   29.4,   27.2,   30.8
1999/07/27 00:30,   42.0,   41.2,   43.2,   47.2,   48.3,   48.5,   46.9,   47.6,   46.8,   48.0,   47.0,   45.6,   40.4,   39.3,   37.7,   33.8,   33.8,   30.3,   31.3,   36.8,   41.4,   37.0,   32.6,   32.6,   31.3,   30.2,   28.5,   25.5,   26.6,   26.9,   26.2,   29.8
1999/07/27 00:40,   38.7,   41.6,   45.6,   46.1,   44.5,   45.2,   44.8,   44.9,   45.8,   45.2,   46.3,   46.2,   45.6,   44.8,   42.8,   34.6,   40.7,   42.6,   41.0,   39.5,   40.3,   43.5,   44.0,   39.4,   30.8,   30.8,   32.1,   28.5,   24.2,   22.7,   24.1,   25.2
1999/07/27 00:50,   42.8,   43.1,   44.8,   45.3,   46.1,   44.7,   44.2,   46.7,   45.9,   47.5,   46.3,   46.8,   44.6,   40.9,   42.0,   40.5,   39.3,   39.1,   39.6,   34.5,   37.8,   33.6,   31.7,   33.2,   28.0,   29.2,   29.9,   26.3,   25.5,   23.3,   19.6,   27.8
1999/07/27 01:00,   43.4,   44.0,   44.3,   44.8,   46.7,   44.6,   45.9,   46.2,   46.6,   45.3,   46.8,   48.9,   46.9,   45.2,   44.4,   40.9,   39.7,   36.9,   38.8,   40.6,   38.1,   39.2,   36.4,   36.2,   32.7,   27.4,   32.7,   29.8,   25.1,   20.8,   19.7,   21.0
1999/07/27 01:10,   37.9,   41.5,   43.3,   47.2,   47.4,   45.1,   44.3,   45.2,   45.1,   43.6,   42.0,   42.2,   42.3,   42.2,   42.9,   41.3,   40.3,   40.4,   39.5,   39.8,   37.6,   38.0,   38.1,   37.7,   38.4,   36.9,   30.5,   28.4,   26.0,   27.4,   20.7,   25.6
1999/07/27 01:20,   39.1,   41.9,   43.6,   44.1,   45.5,   44.8,   44.5,   44.2,   44.4,   43.7,   45.6,   47.0,   46.5,   44.2,   44.1,   42.9,   43.5,   36.3,   41.1,   39.7,   38.0,   41.8,   39.7,   37.1,   36.3,   34.3,   35.3,   30.0,   25.9,   29.4,   23.3,   26.9
1999/07/27 01:30,   42.7,   42.8,   47.1,   47.5,   48.8,   45.4,   45.8,   46.3,   47.5,   47.9,   48.5,   46.1,   38.3,   35.5,   35.9,   36.8,   35.0,   32.9,   34.1,   40.7,   42.5,   40.1,   33.9,   33.5,   32.2,   27.5,   26.7,   30.9,   32.9,   30.9,   25.9,   25.9
1999/07/27 01:40,   40.8,   42.9,   45.3,   45.1,   46.3,   45.3,   47.2,   44.6,   48.8,   47.7,   46.3,   41.4,   36.8,   35.3,   38.4,   40.1,   36.5,   33.5,   36.9,   35.0,   33.9,   30.0,   25.6,   26.3,   27.7,   27.7,   26.5,   25.9,   24.9,   31.6,   26.9,   27.7
1999/07/27 01:50,   40.0,   40.7,   42.9,   43.9,   44.9,   46.9,   48.5,   47.6,   48.3,   46.6,   45.5,   44.0,   42.8,   42.5,   41.2,   41.2,   40.8,   42.5,   41.3,   38.1,   33.0,   34.3,   29.1,   24.6,   22.8,   25.2,   23.7,   26.0,   23.0,   24.1,   28.2,   26.1
1999/07/27 02:00,   41.5,   42.4,   40.9,   43.8,   46.8,   49.5,   50.8,   52.0,   51.5,   51.8,   49.1,   44.5,   42.8,   36.3,   37.5,   43.6,   44.2,   37.8,   37.3,   39.7,   41.1,   36.6,   33.6,   30.1,   31.5,   23.4,   24.9,   28.0,   21.1,   22.6,   27.8,   24.7
1999/07/27 02:10,   43.2,   42.6,   45.5,   47.1,   48.5,   46.4,   45.4,   46.5,   44.9,   44.3,   42.4,   41.3,   38.5,   39.1,   42.7,   38.0,   36.4,   33.7,   32.9,   34.2,   35.9,   34.9,   31.9,   35.3,   32.9,   31.1,   24.4,   22.1,   23.2,   26.5,   25.5,   26.8
1999/07/27 02:20,   40.6,   41.5,   44.0,   43.9,   43.6,   44.0,   43.5,   43.4,   45.9,   45.9,   45.6,   41.5,   38.3,   35.3,   33.4,   33.5,   31.0,   33.3,   33.4,   34.5,   31.8,   32.7,   30.9,   29.8,   30.3,   26.4,   21.9,   20.8,   20.6,   19.6,   28.6,   31.1
1999/07/27 02:30,   40.7,   44.1,   47.4,   44.7,   43.9,   47.3,   46.7,   46.7,   44.8,   45.2,   44.3,   41.0,   37.4,   35.0,   38.9,   40.5,   41.7,   39.2,   38.1,   34.2,   30.7,   29.4,   23.8,   25.2,   27.7,   25.7,   17.9,   24.4,   23.4,   19.1,   18.8,   32.3
1999/07/27 02:40,   39.4,   41.9,   43.5,   44.5,   44.4,   44.1,   45.3,   45.6,   48.1,   45.3,   46.7,   42.7,   35.8,   36.7,   37.1,   39.5,   40.6,   41.4,   40.3,   35.1,   31.2,   25.6,   24.9,   23.7,   30.4,   31.0,   25.1,   20.6,   26.4,   27.7,   21.4,   32.4
1999/07/27 02:50,   38.8,   40.4,   43.0,   46.0,   45.6,   48.0,   48.8,   46.3,   46.5,   44.2,   42.8,   41.9,   40.2,   36.6,   38.9,   40.9,   42.4,   43.4,   39.7,   31.0,   32.9,   23.8,   21.6,   30.3,   33.4,   27.9,   29.8,   22.0,   23.4,   28.3,   22.7,   19.1
1999/07/27 03:00,   40.9,   41.8,   45.6,   47.9,   47.2,   46.7,   47.4,   48.4,   47.6,   47.0,   45.7,   43.7,   44.0,   44.5,   40.8,   37.4,   38.8,   42.6,   40.8,   35.0,   32.9,   30.7,   28.8,   25.7,   28.4,   24.8,   26.3,   23.1,   21.7,   23.0,   23.3,   21.5
1999/07/27 03:10,   44.9,   45.9,   46.6,   45.9,   46.3,   48.2,   48.4,   44.3,   46.5,   41.1,   39.4,   37.8,   37.2,   32.4,   31.2,   28.8,   32.1,   38.5,   33.9,   33.1,   27.0,   27.6,   32.6,   27.6,   25.0,   26.7,   28.2,   24.2,   21.2,   17.3,   19.9,   24.1
1999/07/27 03:20,   41.1,   41.0,   44.7,   47.8,   47.9,   48.6,   50.5,   45.4,   45.4,   42.2,   38.7,   37.7,   39.2,   41.4,   39.7,   32.8,   30.9,   29.9,   21.9,   23.1,   22.2,   24.9,   28.5,   28.9,   23.5,   25.3,   24.3,   21.4,   20.4,   18.0,   20.5,   27.2
1999/07/27 03:30,   38.7,   39.6,   43.1,   46.0,   47.3,   48.2,   46.0,   45.4,   42.0,   40.5,   40.9,   41.5,   42.9,   43.2,   41.0,   38.7,   38.7,   39.9,   35.9,   32.1,   29.2,   25.8,   32.4,   31.2,   23.1,   23.7,   21.3,   17.8,  999.0,  999.0,   19.6,   19.8
1999/07/27 03:40,   37.7,   38.9,   42.7,   44.1,   46.7,   45.7,   46.0,   46.0,   45.0,   43.9,   43.9,   44.9,   44.9,   44.7,   44.4,   39.9,   40.6,   37.7,   37.6,   37.5,   32.0,   29.6,   28.1,   28.8,   22.7,   21.1,  999.0,   17.7,  999.0,  999.0,   17.1,   18.7
1999/07/27 03:50,   41.1,   41.6,   44.6,   46.2,   48.5,   48.9,   50.0,   49.8,   49.0,   45.7,   44.0,   42.0,   40.1,   38.1,   34.9,   36.8,   28.5,   30.5,   28.2,   31.1,   32.0,   29.3,   29.1,   30.1,   24.3,   21.3,  999.0,   16.9,  999.0,  999.0,   19.8,   20.8
1999/07/27 04:00,   41.0,   44.2,   46.3,   46.5,   48.8,   46.5,   45.3,   45.7,   44.8,   42.6,   39.4,   38.4,   43.3,   41.7,   41.4,   36.3,   30.2,   30.2,   31.1,   31.4,   28.5,   30.4,   32.3,   27.9,   23.1,   22.8,   22.2,   17.3,  999.0,  999.0,  999.0,  999.0
1999/07/27 04:10,   44.2,   46.8,   47.7,   48.1,   45.6,   43.8,   43.3,   40.7,   39.8,   40.3,   42.3,   42.1,   40.5,   39.7,   41.8,   34.8,   28.3,   28.4,   24.0,   28.7,   25.9,   27.7,   29.4,   25.2,   22.6,   21.4,   21.8,   20.6,   19.7,   19.4,   20.2,   21.7
1999/07/27 04:20,   40.6,   40.5,   43.4,   45.1,   45.9,   47.2,   45.8,   44.0,   43.4,   42.3,   42.9,   45.5,   41.4,   43.8,   47.1,   43.7,   38.8,   34.6,   28.7,   33.6,   31.0,   24.6,   27.5,   26.1,   24.5,   21.0,   18.3,   19.4,   18.3,   16.1,   18.7,   23.0
1999/07/27 04:30,   40.0,   43.3,   46.1,   46.7,   46.6,   44.5,   45.4,   44.2,   44.0,   45.1,   44.2,   44.0,   39.5,   44.1,   41.9,   39.5,   35.1,   31.5,   29.1,   30.6,   33.2,   27.1,   25.4,   28.6,   26.5,   23.2,   18.9,   16.8,  999.0,  999.0,   20.8,   25.7
1999/07/27 04:40,   41.8,   43.8,   43.7,   45.9,   47.7,   48.7,   48.1,   48.4,   46.8,   48.4,   49.6,   47.7,   41.4,   34.3,   38.3,   33.4,   30.3,   39.8,   40.8,   29.2,   29.3,   26.0,   24.4,   31.1,   23.7,   22.8,   19.5,   20.0,   16.5,   20.1,   18.2,   26.5
1999/07/27 04:50,   45.0,   44.2,   44.3,   46.6,   49.8,   50.1,   48.4,   46.9,   47.7,   47.8,   45.8,   42.5,   38.8,   34.9,   37.2,   34.5,   25.6,   25.1,   22.9,   25.0,   28.4,   22.7,   23.6,   24.3,   22.7,   23.5,   23.7,   18.6,  999.0,   22.5,   19.8,   27.5
1999/07/27 05:00,   43.0,   44.5,   46.9,   50.8,   52.8,   52.3,   47.7,   46.0,   46.4,   47.6,   45.2,   43.7,   44.2,   40.5,   40.6,   40.6,   32.8,   28.9,   29.9,   21.6,   28.4,   28.1,   26.9,   21.5,   26.7,   24.7,   22.7,  999.0,   16.7,   20.1,   22.1,   24.6
1999/07/27 05:10,   40.3,   42.7,   44.3,   45.2,   48.5,   47.4,   47.8,   46.9,   45.3,   45.8,   42.6,   40.4,   41.3,   41.9,   43.5,   41.2,   29.1,   27.7,   24.3,  999.0,   25.6,   29.0,   26.4,   21.7,   25.7,   23.3,   20.5,   19.1,   19.2,   23.6,   23.2,   26.4
1999/07/27 05:20,   42.5,   44.8,   44.8,   44.4,   44.9,   45.8,   47.5,   47.7,   46.7,   46.3,   46.7,   42.1,   42.9,   40.5,   38.6,   36.0,   30.5,   24.1,   25.3,   21.6,   24.0,   25.6,   24.8,   21.7,   25.5,   21.8,   20.8,   19.1,   21.5,   21.1,   22.8,   23.6
1999/07/27 05:30,   41.3,   41.2,   42.0,   44.5,   47.2,   48.4,   46.5,   45.1,   44.4,   47.7,   46.3,   44.7,   43.6,   38.2,   39.5,   41.5,   35.4,   32.0,   26.6,   24.4,   21.6,   23.5,   20.4,   21.7,   25.5,   19.2,   19.7,   22.0,   21.2,   21.6,   23.4,   26.9
1999/07/27 05:40,   38.9,   40.9,   45.5,   45.7,   45.5,   45.6,   46.8,   46.3,   46.7,   47.4,   45.5,   42.7,   41.1,   36.6,   37.7,   34.3,   29.6,   29.1,   33.0,  999.0,   17.9,   25.8,   22.8,   26.1,   24.0,   20.9,   15.7,   18.7,   25.5,   23.2,   22.4,   26.0
1999/07/27 05:50,   39.5,   43.0,   44.7,   44.8,   46.7,   46.7,   45.3,   47.7,   47.7,   47.2,   46.4,   48.2,   43.6,   41.0,   41.1,   40.3,   39.8,   38.0,   36.7,   35.6,   35.9,   32.4,   23.9,   27.4,   25.9,   19.2,  999.0,   18.1,   21.0,   22.8,   19.4,   22.2
1999/07/27 06:00,   40.0,   39.9,   44.0,   45.4,   46.5,   47.1,   47.2,   47.3,   47.6,   46.7,   46.9,   44.6,   42.6,   43.7,   46.5,   46.0,   43.2,   39.2,   37.0,   38.7,   39.9,   36.7,   33.8,   31.3,   27.4,   30.4,   21.4,   20.9,   21.0,   19.4,   20.4,   18.8
1999/07/27 06:10,   42.1,   43.7,   46.2,   46.6,   48.3,   46.8,   44.3,   44.9,   44.0,   42.7,   45.0,   36.0,   33.8,   32.3,   38.6,   35.7,   40.5,   40.2,   38.2,   33.3,   35.1,   39.9,   38.3,   34.9,   30.2,   31.2,   24.4,  999.0,   19.6,   18.5,   17.8,   20.2
1999/07/27 06:20,   38.8,   40.7,   42.8,   45.0,   47.2,   47.0,   45.2,   44.9,   46.4,   46.0,   45.6,   45.2,   45.2,   46.8,   45.5,   40.5,   37.3,   31.3,   28.5,   27.6,   30.1,   33.2,   33.7,   32.1,   30.8,   30.6,   29.6,   26.0,   19.6,   14.1,   16.3,   21.3
1999/07/27 06:30,   40.2,   41.0,   46.8,   49.7,   51.1,   50.4,   46.8,   45.2,   44.9,   44.8,   42.6,   41.1,   40.8,   41.4,   43.1,   39.3,   39.0,   42.4,   43.5,   41.0,   36.9,   37.4,   35.2,   28.3,   26.0,   24.4,   26.7,   30.6,   22.2,   19.4,  999.0,  999.0
1999/07/27 06:40,   43.3,   46.5,   47.0,   44.8,   45.6,   45.9,   44.4,   44.3,   43.5,   43.1,   41.4,   38.4,   35.7,   35.8,   37.3,   35.9,   32.3,   28.8,   25.8,   27.0,   29.8,   28.5,   32.3,   35.9,   31.1,   24.7,   21.5,   23.3,   25.1,   21.0,   19.9,   16.9
1999/07/27 06:50,   43.3,   43.6,   42.8,   43.9,   45.7,   46.7,   48.0,   48.0,   47.7,   45.3,   44.0,   43.0,   39.5,   37.8,   36.1,   36.7,   32.1,   31.3,   28.0,   23.4,   26.3,   26.6,   22.7,   23.4,   23.6,   21.0,   23.7,   27.6,   25.4,   23.2,   18.4,   19.8
1999/07/27 07:00,   41.3,   44.4,   43.6,   41.3,   46.3,   48.1,   46.1,   46.9,   46.8,   47.6,   43.7,   37.9,   34.1,   38.0,   38.7,   37.8,   29.7,   25.2,   25.0,   25.7,   29.2,   28.2,   25.2,   29.4,   22.3,   20.3,   22.7,   25.3,   23.5,   22.3,   18.9,   18.5
1999/07/27 07:10,   41.9,   42.1,   43.1,   42.9,   45.0,   46.7,   46.4,   47.7,   47.7,   46.2,   42.8,   35.5,   36.9,   39.3,   39.0,   40.3,   39.2,   34.2,   29.0,   27.1,   24.9,   29.5,   30.1,   27.0,   21.7,   21.7,   23.3,   29.0,   24.4,   22.6,   19.6,  999.0
1999/07/27 07:20,   42.6,   45.6,   46.1,   48.4,   49.4,   47.9,   49.3,   48.4,   44.7,   39.6,   36.6,   34.5,   34.5,   43.6,   43.9,   42.5,   38.0,   29.6,   29.0,   28.6,   31.1,   28.9,   26.7,   22.5,   22.4,   21.6,   22.9,   24.1,   27.3,   29.5,   24.5,   15.7
1999/07/27 07:30,   44.0,   44.3,   44.5,   46.9,   49.6,   47.4,   45.8,   43.0,   43.1,   40.6,   40.9,   38.7,   34.2,   36.1,   38.7,   39.4,   33.1,   31.5,   32.5,   34.4,   32.5,   28.4,   25.0,   23.5,   21.1,   20.3,   20.7,   22.2,   24.2,   30.2,   25.6,   22.2
1999/07/27 07:40,   42.7,   43.9,   42.5,   44.3,   47.0,   47.4,   44.9,   48.7,   45.5,   43.8,   41.3,   39.7,   35.2,   39.3,   44.6,   38.6,   33.3,   28.3,   25.1,   24.1,   27.7,   28.7,   21.0,   23.1,   21.0,   21.2,   21.3,   20.6,   22.7,   20.4,   27.9,   18.7
1999/07/27 07:50,   41.1,   44.0,   46.3,   46.2,   47.8,   48.0,   45.3,   44.6,   41.0,   38.3,   38.3,   41.4,   34.2,   27.0,   37.4,   38.0,   33.3,   33.2,   30.9,   30.5,   27.1,   22.2,   21.3,   21.6,   19.8,   20.1,   20.7,   22.4,   18.0,   16.9,   28.2,   22.5
1999/07/27 08:00,   44.1,   47.6,   45.5,   43.1,   43.2,   45.7,   44.0,   42.4,   38.9,   41.4,   39.1,   35.8,   31.0,   27.1,   33.9,   34.1,   24.3,   25.0,   25.8,   29.1,   26.3,   24.0,   21.7,   24.0,   21.5,   18.7,   19.6,   21.3,   20.7,   17.9,   25.8,   29.9
1999/07/27 08:10,   43.7,   41.5,   41.7,   42.9,   43.8,   45.4,   44.6,   45.2,   41.3,   40.2,   37.8,   35.1,  999.0,   30.4,   37.5,   35.3,   26.0,   24.3,   26.5,   27.7,   22.3,   22.0,   21.6,   20.8,   20.8,   20.6,   18.7,   25.5,   19.6,   19.9,   24.8,   27.5
1999/07/27 08:20,   43.7,   42.7,   43.7,   43.8,   45.1,   45.2,   45.1,   43.3,   42.2,   41.8,   37.7,   37.5,   33.3,   31.4,   32.8,   36.8,   26.8,   24.7,   26.3,   27.6,   28.3,   24.1,   24.2,   21.9,   19.2,   19.1,   18.4,   26.0,   24.7,   19.5,   18.0,   19.8
1999/07/27 08:30,   42.8,   41.6,   40.7,   42.7,   43.4,   46.0,   45.0,   44.0,   45.4,   46.4,   43.4,   40.1,   39.3,   33.1,   35.9,   36.9,   27.9,   26.1,   26.6,   25.5,   27.1,   25.6,   25.4,   24.1,   22.8,   21.0,   21.2,   23.1,   23.8,   20.6,   23.1,   18.9
1999/07/27 08:40,   43.4,   41.5,   42.5,   43.3,   43.7,   43.1,   43.6,   44.7,   41.0,   43.2,   42.9,   40.3,   36.7,   33.4,   31.6,   35.9,   34.1,   27.2,   24.9,   22.7,   21.8,   23.5,   22.8,   23.1,   22.9,   22.4,   21.1,   23.3,   24.4,   25.0,   24.4,   23.6
1999/07/27 08:50,   42.9,   42.6,   43.5,   45.5,   44.8,   44.3,   44.9,   44.4,   44.3,   46.0,   42.7,   38.5,   36.5,   29.2,   32.4,   33.5,   37.0,   33.8,   23.2,   27.2,   27.6,   26.9,   25.9,   22.1,   26.8,   27.7,   25.5,   23.2,   24.4,   24.8,   22.8,   23.7
1999/07/27 09:00,   45.2,   41.9,   45.4,   44.8,   41.7,   43.0,   44.8,   45.6,   44.3,   45.7,   43.4,   42.0,   39.5,   37.3,   36.6,   31.9,   31.1,   32.7,   25.4,   19.4,   24.1,   23.2,   24.7,   21.6,   19.9,   25.7,   25.5,   22.2,   20.8,   23.0,   23.5,   22.9
1999/07/27 09:10,   46.1,   42.9,   42.0,   42.0,   44.3,   46.5,   46.1,   47.4,   46.6,   43.1,   40.5,   37.0,   31.4,   28.0,   31.7,   33.3,   36.3,   32.8,   25.0,   32.3,   25.1,   24.1,   20.8,   22.8,   23.2,   19.1,   19.7,   23.2,   24.5,   21.4,   20.6,   19.9
1999/07/27 09:20,   46.1,   44.2,   40.3,   45.8,   48.9,   47.5,   48.0,   45.9,   45.3,   43.8,   39.8,   38.6,   35.0,   31.0,   31.9,   32.5,   32.1,   30.6,   27.4,   20.5,   25.2,   27.2,   24.4,   23.4,   22.4,   18.3,   18.8,   24.7,   24.6,   22.2,   20.6,   21.5
1999/07/27 09:30,   45.8,   43.8,   42.2,   44.8,   44.8,   43.5,   41.2,   47.5,   49.7,   43.5,   35.2,   36.3,   29.7,   29.2,   31.1,   34.6,   35.5,   30.5,   27.1,   22.8,   24.0,   26.7,   25.8,   24.3,   23.6,   22.8,   17.9,   23.5,   25.1,   23.8,   23.0,   23.5
1999/07/27 09:40,   49.6,   46.9,   44.8,   42.1,   43.0,   45.5,   44.2,   46.2,   49.8,   46.5,   36.0,   33.8,   29.9,   29.2,   31.5,   29.5,   30.0,   31.5,   28.0,   25.6,   23.6,   24.4,   27.9,   27.6,   24.0,   19.9,   18.4,   20.7,   24.3,   24.1,   23.6,   21.3
1999/07/27 09:50,   48.3,   48.4,   45.7,   43.9,   43.5,   42.7,   45.4,   45.6,   47.5,   49.1,   49.3,   44.5,   40.7,   45.4,   48.6,   42.8,   26.7,   31.3,   34.0,   29.0,   23.9,   23.8,   22.5,   25.8,   30.3,   27.7,   20.6,   20.2,   21.1,   24.5,   24.9,   20.7
1999/07/27 10:00,   47.3,   45.7,   42.9,   41.1,   40.2,   40.6,   39.8,   47.1,   49.5,   48.9,   45.4,   40.8,   39.4,   42.6,   43.0,   41.1,   38.2,   33.3,   36.6,   36.8,   37.2,   33.7,   26.4,   23.1,   27.9,   27.9,   25.6,   22.6,   20.0,   22.5,   20.7,  999.0
1999/07/27 10:10,   47.7,   47.5,   40.6,   40.5,   44.1,   48.5,   48.5,   47.0,   47.5,   45.9,   43.7,   40.4,   37.6,   36.2,   38.1,   39.1,   30.3,   29.9,   32.1,   29.8,   28.4,   27.0,   26.7,   23.9,   31.4,   30.9,   26.6,   22.5,   21.3,   22.1,   22.1,   19.0
1999/07/27 10:20,   47.1,   46.2,   43.2,   47.4,   50.0,   44.9,   41.7,   43.0,   46.5,   47.0,   45.8,   43.0,   39.5,   41.3,   39.6,   38.4,   37.5,   35.9,   36.8,   34.0,   31.4,   27.1,   22.4,   22.1,   21.8,   29.2,   29.0,   30.9,   27.3,   24.1,   24.4,   22.9
1999/07/27 10:30,   55.7,   57.3,   58.8,   59.5,   58.7,   58.2,   55.7,   54.2,   50.6,   52.8,   51.2,   52.7,   48.6,   46.5,   43.6,   44.0,   42.8,   40.9,   39.5,   37.1,   33.4,   31.3,   30.3,   28.8,   28.3,   26.9,   27.6,   22.6,   27.4,   28.8,   29.1,   27.2
1999/07/27 10:40,   60.3,   60.5,   62.4,   62.7,   62.9,   59.8,   59.5,   57.8,   58.2,   57.5,   56.1,   54.9,   54.3,   53.1,   52.6,   51.6,   49.9,   47.4,   43.9,   40.2,   35.2,   34.0,   32.9,   30.2,   33.6,   31.4,   28.1,   31.4,   30.2,   31.8,   31.8,   26.1
1999/07/27 10:50,   42.5,   39.8,   42.2,   46.9,   47.5,   46.5,   45.3,   45.1,   46.9,   47.1,   47.2,   44.5,   38.9,   36.2,   36.2,   38.5,   34.8,   33.4,   32.2,   35.4,   37.0,   36.7,   30.6,   28.6,   30.2,   35.6,   34.5,   29.1,   27.5,   26.8,   26.9,   25.2
1999/07/27 11:00,   41.8,   42.3,   42.0,   43.3,   44.9,   44.3,   44.2,   44.5,   43.3,   42.1,   44.5,   38.7,   36.9,   35.9,   35.3,   33.6,   32.3,   27.7,   23.5,   28.1,   22.4,   29.2,   26.8,   23.0,   21.2,   23.5,   24.0,   24.8,   31.1,   27.6,   25.3,   24.5
1999/07/27 11:10,   44.1,   42.6,   40.6,   41.1,   42.3,   41.0,   40.9,   45.0,   46.5,   44.9,   41.9,   35.2,   33.6,   30.4,   34.8,   37.9,   35.3,   32.6,   25.3,   23.2,   24.9,   25.9,   24.2,   17.3,   16.4,  999.0,   20.3,   23.7,   22.7,   24.6,   27.3,   28.4
1999/07/27 11:20,   42.4,   40.2,   40.1,   41.7,   43.6,   43.9,   42.4,   44.5,   43.5,   39.2,   37.1,   34.1,   32.9,   34.4,   32.9,   33.7,   37.0,   31.4,   23.9,   21.4,   22.2,   22.4,   18.8,   20.5,   18.2,  999.0,  999.0,   20.2,   23.0,   25.9,   27.1,   24.4
1999/07/27 11:30,   40.3,   42.7,   45.3,   44.2,   40.0,   41.2,   42.5,   43.5,   42.1,   42.6,   40.9,   37.4,   37.1,   32.4,   30.2,   30.9,   35.1,   30.3,   26.0,   22.7,   22.3,   23.5,   25.3,   26.4,   26.8,   19.4,   24.7,   20.1,   23.6,   23.7,   27.1,   27.2
1999/07/27 11:40,   41.9,   41.8,   40.7,   39.8,   41.1,   40.4,   43.3,   42.8,   44.6,   38.2,   37.2,   38.4,   35.7,   31.3,   30.0,   28.6,   25.2,   26.4,   23.2,   22.6,   21.7,   22.3,   23.6,   25.6,   29.6,   30.6,   31.2,   32.5,   32.0,   30.2,   26.7,   26.7
1999/07/27 11:50,   41.3,   39.5,   39.1,   40.7,   41.7,   41.6,   43.0,   41.4,   39.2,   37.3,   36.4,   34.6,   33.0,   35.1,   31.6,   29.9,   26.4,   28.2,   30.1,   22.9,   31.3,   33.0,   29.2,   36.8,   41.8,   43.0,   44.3,   45.0,   38.9,   38.1,   35.7,   35.4
1999/07/27 12:00,   41.1,   40.4,   41.1,   41.5,   42.3,   41.8,   44.2,   44.3,   41.4,   37.8,   39.7,   40.3,   38.4,   38.7,   38.3,   36.7,   35.2,   39.8,   41.5,   43.0,   43.4,   48.5,   47.0,   49.2,   51.0,   51.1,   51.2,   51.9,   50.1,   45.8,   45.9,   44.4
1999/07/27 12:10,   43.2,   39.8,   42.5,   44.0,   41.5,   41.0,   43.0,   44.8,   39.4,   32.8,   35.6,   35.5,   33.8,   30.6,   30.5,   32.2,   32.4,   33.5,   33.4,   36.8,   35.6,   39.7,   40.2,   40.4,   39.9,   39.4,   36.8,   35.4,   33.9,   32.5,   29.7,   28.5
1999/07/27 12:20,   43.6,   44.6,   44.1,   42.9,   40.9,   39.3,   42.4,   44.5,   43.8,   34.6,   36.2,   39.8,   39.0,   38.3,   36.8,   33.4,   32.2,   29.0,   30.4,   29.4,   30.7,   32.0,   33.4,   35.0,   36.5,   43.5,   40.8,   40.9,   39.6,   40.0,   39.1,   36.6
1999/07/27 12:30,   43.4,   41.4,   42.5,   41.5,   39.9,   40.6,   40.2,   43.6,   46.4,   48.3,   49.3,   50.5,   49.3,   51.7,   51.3,   50.6,   51.9,   53.5,   53.2,   52.9,   52.5,   52.0,   51.8,   50.7,   47.8,   52.4,   45.6,   42.7,   42.4,   42.2,   41.9,   40.3
1999/07/27 12:40,   39.9,   41.0,   40.3,   39.8,   40.5,   40.9,   40.8,   44.0,   42.0,   48.4,   50.6,   51.2,   49.7,   51.4,   52.2,   53.4,   54.1,   55.4,   56.2,   56.7,   56.7,   56.4,   56.3,   55.8,   58.1,   60.0,   49.5,   47.0,   46.9,   47.6,   47.1,   45.9
1999/07/27 12:50,   40.3,   39.4,   39.6,   41.5,   41.6,   43.1,   42.6,   40.6,   41.8,   43.1,   48.2,  999.0,   48.2,   51.2,   52.3,   53.8,   56.0,   57.8,   59.3,   59.4,   59.5,   59.1,   58.0,   57.2,   57.9,   60.3,   49.6,   44.5,   42.9,   42.9,   43.5,   42.9
1999/07/27 13:00,   38.5,   39.6,   40.0,   41.4,   43.0,   41.4,   40.4,   41.6,   43.9,   40.1,   38.9,   44.2,   49.1,   52.1,   55.7,   57.4,   58.4,   58.9,   59.2,   58.7,   58.8,   58.1,   57.6,   57.2,   59.6,   61.4,   50.2,   45.2,   42.0,   40.3,   41.4,   42.2
1999/07/27 13:10,   39.9,   40.9,   38.7,   38.7,   39.0,   37.5,   37.7,   39.3,   39.9,   40.4,   42.3,   40.3,   34.9,   49.7,   52.3,   55.8,   57.2,   57.9,   58.1,   58.3,   57.8,   56.8,   56.8,   54.9,   56.5,   61.7,   51.0,   46.1,   43.8,   41.0,   38.1,   36.5
1999/07/27 13:20,   38.8,   38.2,   40.7,   37.8,   37.9,   40.3,   42.5,   42.8,   40.0,   38.8,   35.5,   37.1,   35.2,   42.2,   45.4,   45.4,   48.6,   52.7,   52.5,   53.5,   55.5,   55.8,   55.4,   54.3,   54.7,   55.5,   49.5,   47.5,   46.0,   44.5,   43.7,   42.4
1999/07/27 13:30,   39.9,   36.9,   36.1,   40.1,   44.9,   46.9,   44.9,   40.8,   37.5,   39.0,   41.9,   56.0,   41.2,   42.5,   45.8,   45.7,   47.9,   50.2,   51.4,   52.2,   52.1,   51.8,   51.0,   50.0,   49.7,   54.5,   51.3,   47.0,   45.8,   43.1,   40.4,   37.0
1999/07/27 13:40,   40.4,   38.7,   43.5,   46.8,   46.1,   46.3,   42.4,   39.6,   36.4,   40.3,   46.3,   51.6,   54.1,   56.0,   57.2,   57.8,   56.7,   57.0,   57.0,   56.0,   55.4,   54.5,   53.9,   54.1,   56.0,   58.2,   52.3,   51.5,   50.3,   47.9,   45.2,   40.9
1999/07/27 13:50,   40.6,   39.1,   43.5,   44.1,   41.9,   42.7,   42.4,   41.2,   40.1,   33.8,   37.2,   32.5,   37.4,   37.2,   41.1,   53.4,   51.2,   52.0,   52.0,   51.4,   50.5,   50.0,   50.5,   50.4,   55.1,   58.1,   51.0,   51.2,   51.2,   50.3,   48.8,   45.4
1999/07/27 14:00,   42.6,   40.2,   43.7,   42.8,   40.6,   40.5,   42.8,   41.0,   34.7,   36.1,   35.3,   31.6,   33.3,   32.9,   35.2,   37.6,   34.8,   37.0,   37.9,   40.3,   42.4,   44.3,   46.3,   47.8,   49.6,   56.2,   52.2,   51.3,   50.9,   50.2,   49.1,   46.4
1999/07/27 14:10,   40.5,   43.1,   39.5,   39.6,   42.3,   43.2,   47.2,   43.9,   42.9,   44.2,   44.4,   43.1,   45.4,   46.9,   50.1,   53.1,   53.9,   53.2,   47.3,   53.3,   51.6,   53.7,   55.2,   55.4,   57.5,   62.2,   58.4,   56.3,   54.5,   52.6,   50.7,   47.3